Terug naar catalogus

STARLINK-36571

ActiefCommunicatieSSO
NORAD 67579·PAYLOAD·🇺🇸 United States

Gelanceerd Jan 25, 2026 vanaf Vandenberg Space Force Base

Loading…

Volgende Passages (komende 24 uur)

TLE

VersSource: CelesTrak SupGP

Epoch: Sep 14, 2026, 22:51 UTC

1 67579C 26016U   26257.95256944  .00009340  00000+0  28993-3 0  2571
2 67579  97.2854 316.6729 0000957  95.9202  92.5609 15.33434467    15

Volg STARLINK-36571 in realtime met AllMySat

Download on the App Store